CZ-2D DEB, 44607

Orbit data source: Space-Track

CZ-2D DEB, 44607 is space debris in SSO originally from a launch on Fri, 11 Nov 2016 UTC launched from the Jiuquan Satellite Launch Center, China (JSC). Debris objects in space refer to the collection of defunct objects orbiting the Earth. Examples of debris include non-operational satellites, rocket bodies, and fragments generated from explosions, collisions, or faulty payload assembly.

Loading next visibility...
Identifier
44607, 2016-068G
Orbit
SSO
Country
Flag of CNCN / PRC
Related business
Manufacturer
Unknown
Mission
Spacecraft
Bus & Motor
Unknown
Mass
Unknown
Launch date (UTC)
2016-11-11 (9 years ago)
Launch vehicle
Unknown
Launch site
Jiuquan Satellite Launch Center, China (JSC)
Object type
Payload
Rocket body
Debris
Shape & HBR
Unknown shape, 0.1 m
Radar Cross Section
Small (<0.1 m²)

Expand to show TLE details & history
Last TLE update: 7 hours ago

TLE from 7 hours ago
0 CZ-2D DEB
1 44607U 16068G   26038.18943950  .00001490  00000-0  92340-3 0  9995
2 44607  98.4972 181.3626 0204328 172.8330 187.5835 13.96736638462687
Epoch: 2026-02-07T04:32Z
TLE epoch observation values (Epoch: 2026-02-07T04:32:47.572Z)
Latitude
Longitude
-24.15215°
Altitude
1,055.605 km
Speed
7.25 km/s
True Right ascension
12h 05m 27s
True Declination
0° 00' 00"
Sunlit
Object was in full shadow at epoch
Visualization orbit readout
Latitude
Unknown
Longitude
Unknown
Altitude
Unknown
Speed
Unknown
Apparent Right ascension
Unknown
Apparent Declination
Unknown
Sunlit
N/A
Visualization observer readout
Local Sidereal Time
13:50:15
Azimuth
Unknown
Elevation
Unknown
Doppler factor
Unknown
Orbital elements
Apogee altitude
1,051.055 km
Perigee altitude
753.536 km
Semi-major axis
7,280.433 km
Eccentricity
0.02043
Inclination
98.4972°
RAAN
181.3626°
Arg. of periapsis
172.833°
True anomaly
187.28214°
Mean anomaly
187.5835°
Eccentric anomaly
187.43207°
Mean motion
3.49388 °/min
Orbital period
103.04 mins
BSTAR
0.0009234
Loading maneuver chart data...
Computing Atmospheric mass density...
Loading historical data...
Loading historical data...
Loading historical data...
Loading historical data...
Loading historical data...
Loading historical data...
Loading historical data...

Documentation

Showing up to 5 results
|